Tracking 31027 objects as of 19-Jul-2025
HD Live streaming from Space Station
objects crossing your sky now

CZ-4 DEB

Track CZ-4 DEB now!
10-day predictions


NORAD ID: 32473
Int'l Code: 2007-042C
Perigee: 635.2 km
Apogee: 763.6 km
Inclination: 98.0 °
Period: 98.6 minutes
Semi major axis: 7070 km
RCS: 0.0013 m2 (small)
Launch date: September 19, 2007
Source: People's Republic of China (PRC)
Launch site: Taiyaun Space Center, China (TSC)

Note: This is SATELLITE DEBRIS
Your satellite tracking list
COSMOS 830
Track 1 satellite(s)




NASA's NSSDC Master Catalog

Two Line Element Set (TLE):
1 32473U 07042C   25199.31368071  .00001829  00000-0  36718-3 0  9995
2 32473  97.9655 214.7858 0090811 202.7452 156.9715 14.60272937929946
Source of the keplerian elements: AFSPC